星链-5360 (STARLINK-5360 )
导读
STARLINK-5360是美国太空探索技术公司(SpaceX)星链互联网卫星星座中的一员,于2022年12月28日发射入轨,归属美国。它作为星链项目的组成部分,旨在为全球提供高速低延迟的宽带互联网服务,尤其服务偏远地区、移动载体等网络覆盖薄弱场景,进一步扩充了星链星座的服务能力与覆盖范围。
Basic Information
目录编号:
54846
目录名称:
STARLINK-5360
国际标识:
2022-177AC
轨道中心:
EARTH
卫星名称:
星链-5360
卫星全名:
星链-5360 (STARLINK-5360 )
卫星状态:
在轨 (已飞行1346 天)
发射日期:
2022-12-28 UTC
国别 :
美国
(US)
星等 :
--
Orbit Information
| 数据来源 | 国际轨道数据 | AOE轨道数据 |
| 星历时间 | 2026-09-04T11:07:23+0800 6小时前 查看轨道信息 | 2026-09-03T23:00:00+0800 18小时前 查看轨道信息 |
| 半长轴 | 6861.203km | 6861.192km |
| 偏心率 | 0.0001203 | 0.00014 |
| 轨道倾角 | 43.003° | 43.003° |
| 近地点辐角 | 281.902° | 265.474° |
| 升交点赤经 | 204.899° | 207.752° |
| 平近点角 | 78.170° | 193.500° |
| 近地点 | 482.24km | 482.094km |
| 远地点 | 483.892km | 484.016km |
| 周期 | 94.267分钟 | 94.267分钟 |
| 每日圈数 | 15.275746 | 15.275782 |
Detailed Information
固有亮度:
5
最大亮度:
2.5
卫星平台:
Starlink v1.5
覆盖范围:
全球
运营商:
太空探索技术公司
运营商所在国:
美国
制造商(研发单位):
太空探索技术公司
制造商所在国:
美国
使用方式:
暂无
Satellite Introduction
星链(Starlink)计划是由太空探索技术公司(SpaceX)提出的一个巨型低轨卫星互联网星座项目,计划在2019年至2024年间在太空搭建由约1.2万颗卫星组成的“星链”网络,其中1584颗将部署在地球上空550千米处的近地轨道,并从2020年开始工作。该卫星仍在工作。
2D Orbit Map
3D Orbit Map
Orbit Altitude Analysis Chart
Orbit Inclination Analysis Chart
Orbit Comprehensive Analysis Chart
View Comprehensive ChartConjunction Data List
| Event ID | Objects | TCA | Miss Dist (km) | Collision Risk Probability | Collision Risk Index (CRI) | Action |
|---|---|---|---|---|---|---|
| CDM_260903-114905-484606-724925 |
STARLINK-5360
(54846)
OBJECT B
(67249) | 2026-09-03T 11:49:28+0000 |
1.013 km
极远距离 | 2.213834E-5 中风险 | 0.62 | |
| CDM_260905-042705-484606-703421 |
STARLINK-5360
(54846)
STARLINK-36140
(67034) | 2026-09-05T 04:27:24+0000 |
0.926 km
远距离 | 2.209749E-5 中风险 | 0.62 | |
| CDM_260905-060105-484606-703421 |
STARLINK-5360
(54846)
STARLINK-36140
(67034) | 2026-09-05T 06:01:33+0000 |
1.137 km
极远距离 | 1.08796E-5 中风险 | 0.56 | |
| CDM_260905-025305-484606-703421 |
STARLINK-5360
(54846)
STARLINK-36140
(67034) | 2026-09-05T 02:53:15+0000 |
2.137 km
极远距离 | 1.618951E-6 低风险 | 0.39 | |
| CDM_260905-073505-484606-703421 |
STARLINK-5360
(54846)
STARLINK-36140
(67034) | 2026-09-05T 07:35:42+0000 |
2.467 km
极远距离 | 1.217014E-6 低风险 | 0.37 |

